Location: Orange Harbor Mobile Home Park
(26.6923°N, 81.7937°W)
Time: 08:18:35
(UTC+00:00)

Meteor 1-5 Rocket - Pass Details

Date: 19 September 2020
Orbit: 789 x 915 km, 81.2° (Epoch: 30 October)

Event Time Altitude Azimuth Distance (km) Brightness Sun altitude
Rises 09:53:44 0° 349° (N) 3,293 7.3 -18.8°
Reaches altitude 10° 09:56:06 10° 347° (NNW) 2,369 6.5 -18.3°
Maximum altitude 10:01:23 68° 265° (W) 868 4.0 -17.1°
Drops below altitude 10° 10:06:48 10° 183° (S) 2,421 6.5 -15.9°
Sets 10:09:14 0° 181° (S) 3,370 7.2 -15.4°
